User: anonymous   Login
Location: Gagetown
(45.7834°N, 66.1486°W)
Time: 11:32:38
(UTC+00:00)
Language:

NANOSAT C BR1 - Orbit

View from above orbital plane
View from above orbital plane
View from above satellite
View from above satellite

Ground track
Ground track

The orbit data is extracted from the following two-line orbital elements,

1 40024U 14033Q   21264.09773870  .00000596  00000-0  66878-4 0  9996
2 40024  97.9544 199.9864 0011138 209.3906 150.6686 14.90555224394363
Epoch (UTC): 21 September 2021 02:20:44
Eccentricity: 0.0011138
inclination: 97.9544°
perigee height: 588 km
apogee height: 604 km
right ascension of ascending node: 199.9864°
argument of perigee: 209.3906°
revolutions per day: 14.90555224
mean anomaly at epoch: 150.6686°
orbit number at epoch: 39436

The dashed part of the orbit path shows where the satellite is in the earth's shadow,  

DLR